Location: Newark
(43.4306°N, 0.3089°E)
Time: 19:54:12
(UTC+00:00)

A-11 Canister half - Pass Details

Date: 28 August 2019
Orbit: 1514 x 1686 km, 47.2° (Epoch: 14 September)

Event Time Altitude Azimuth Distance (km) Brightness Sun altitude
Rises 00:25:11 0° 292° (WNW) 4,820 11.8 -36.4°
Reaches altitude 10° 00:29:07 10° 278° (W) 3,859 11.1 -36.3°
Enters shadow 00:31:11 15° 268° (W) 3,457 10.7 -36.2°
